Location: Killam
(52.7910°N, 111.8608°W)
Time: 06:16:39
(UTC+00:00)

Altair - Visible Passes

Search period start: 18 February 2026 00:00
Search period end: 28 February 2026 00:00
Orbit: 1502 x 1682 km, 47.2° (Epoch: 17 February)

Date Brightness Start Highest point End Pass type
(mag) Time Alt. Az. Time Alt. Az. Time Alt. Az.
18 Feb 8.8 10:58:26 20° SSE 11:01:58 25° SE 11:09:07 10° E visible
18 Feb 8.0 12:56:28 11° SW 13:05:02 52° SSE 13:14:09 10° E visible
19 Feb 8.8 10:34:48 22° SSE 10:36:54 24° SE 10:43:45 10° E visible
19 Feb 8.0 12:32:49 17° SW 12:39:53 50° SSE 12:48:54 10° E visible
20 Feb 8.8 10:11:04 22° SE 10:11:50 22° SE 10:18:21 10° E visible
20 Feb 8.0 12:09:06 23° SW 12:14:45 48° SSE 12:23:39 10° E visible
21 Feb 8.9 09:47:18 20° SE 09:47:18 20° SE 09:52:56 10° E visible
21 Feb 8.0 11:45:18 29° SSW 11:49:36 46° SSE 11:58:24 10° E visible
21 Feb 7.8 13:44:20 10° WSW 13:53:26 64° S 14:02:50 10° E visible
22 Feb 9.1 09:23:28 17° ESE 09:23:28 17° ESE 09:27:28 10° E visible
22 Feb 8.0 11:21:28 35° SSW 11:24:28 44° SSE 11:33:10 10° E visible
22 Feb 7.8 13:19:29 11° WSW 13:28:14 63° S 13:37:36 10° E visible
23 Feb 9.3 08:59:35 14° ESE 08:59:35 14° ESE 09:01:57 10° E visible
23 Feb 8.0 10:57:36 39° S 10:59:20 42° SSE 11:07:55 10° E visible
23 Feb 7.7 12:55:36 17° WSW 13:03:03 63° S 13:12:22 10° E visible
24 Feb 9.4 08:35:40 11° E 08:35:40 11° E 08:36:21 10° E visible
24 Feb 8.0 10:33:41 40° SSE 10:34:13 40° SSE 10:42:40 10° E visible
24 Feb 7.7 12:31:41 23° WSW 12:37:52 62° S 12:47:09 10° E visible
25 Feb 8.1 10:09:44 38° SE 10:09:44 38° SE 10:17:24 10° E visible
25 Feb 7.6 12:07:44 30° WSW 12:12:42 61° S 12:21:55 10° E visible
26 Feb 8.3 09:45:45 34° SE 09:45:45 34° SE 09:52:09 10° E visible
26 Feb 7.6 11:43:45 37° SW 11:47:30 60° S 11:56:41 10° E visible
26 Feb 7.8 13:42:32 10° W 13:51:32 59° SSW 14:00:48 10° ESE visible
27 Feb 8.6 09:21:45 29° ESE 09:21:45 29° ESE 09:26:53 10° E visible
27 Feb 7.6 11:19:45 46° SW 11:22:21 59° SSE 11:31:28 10° E visible
27 Feb 7.7 13:17:45 12° W 13:26:21 60° SSW 13:35:37 10° ESE visible
